Location: Newark
(42.3070°N, 2.7230°E)
Time: 18:34:16
(UTC+00:00)

ISS - Visible Passes

Search period start: 16 July 2019 00:00
Search period end: 26 July 2019 00:00
Orbit: 409 x 418 km, 51.6° (Epoch: 17 July)

Date Brightness Start Highest point End Pass type
(mag) Time Alt. Az. Time Alt. Az. Time Alt. Az.
16 Jul -0.7 01:08:51 10° NW 01:11:06 17° N 01:13:21 10° NE visible
16 Jul -2.0 02:45:24 10° NW 02:48:30 35° NNE 02:51:34 10° E visible
16 Jul -3.8 21:03:59 10° SW 21:07:14 55° SE 21:10:31 10° ENE visible
16 Jul -1.6 22:41:10 10° W 22:44:06 27° NNW 22:47:01 10° NE visible
17 Jul -0.7 00:19:23 10° NW 00:21:35 16° N 00:23:47 10° NE visible
17 Jul -1.4 01:56:15 10° NW 01:59:06 26° NNE 02:01:56 10° ENE visible
17 Jul -3.8 03:32:43 10° WNW 03:35:59 61° SW 03:39:14 10° SE visible
17 Jul -3.0 20:15:05 10° SSW 20:18:04 31° SE 20:21:03 10° ENE visible
17 Jul -2.2 21:51:33 10° W 21:54:42 37° NNW 21:57:50 10° NE visible
17 Jul -0.7 23:29:47 10° NW 23:32:03 17° N 23:34:20 10° NE visible
18 Jul -1.1 01:07:02 10° NW 01:09:38 21° NNE 01:12:14 10° ENE visible
18 Jul -3.7 02:43:24 10° NW 02:46:44 77° NNE 02:50:02 10° ESE visible
18 Jul -3.2 21:02:02 10° WSW 21:05:20 58° NNW 21:08:38 10° NE visible
18 Jul -0.9 22:40:04 10° WNW 22:42:32 19° NNW 22:45:01 10° NE visible
19 Jul -0.8 00:17:45 10° NW 00:20:08 18° N 00:22:30 10° NE visible
19 Jul -2.8 01:54:11 10° NW 01:57:24 47° NNE 02:00:37 10° ESE visible
19 Jul -2.6 03:31:14 10° W 03:33:54 23° SW 03:36:33 10° S visible
19 Jul -3.8 20:12:41 10° SW 20:16:01 84° SE 20:19:22 10° ENE visible
19 Jul -1.2 21:50:18 10° WNW 21:53:02 23° NNW 21:55:46 10° NE visible
19 Jul -0.7 23:28:21 10° NW 23:30:35 16° N 23:32:48 10° NE visible
20 Jul -2.0 01:04:58 10° NW 01:08:00 32° NNE 01:09:07 25° ENE visible
20 Jul -2.7 02:45:53 28° S 02:45:53 28° S 02:47:51 10° SSE visible
20 Jul -1.7 21:00:35 10° W 21:03:33 29° NNW 21:06:33 10° NE visible
20 Jul -0.7 22:38:48 10° NW 22:41:01 16° N 22:43:14 10° NE visible
21 Jul -1.3 00:15:45 10° NW 00:18:02 23° N 00:18:02 23° N visible
21 Jul -2.4 20:10:55 10° W 20:14:08 42° NNW 20:17:20 10° NE visible
21 Jul -0.8 21:49:07 10° NW 21:51:27 17° N 21:53:47 10° NE visible
21 Jul -1.2 23:26:30 10° NW 23:29:02 20° NNE 23:29:25 19° NNE visible
22 Jul -1.0 20:59:20 10° WNW 21:01:53 20° NNW 21:04:26 10° NE visible
22 Jul -0.9 22:37:08 10° NW 22:39:28 17° N 22:41:11 13° NE visible
23 Jul -0.7 00:13:36 10° NW 00:13:58 12° NW 00:13:58 12° NW visible
23 Jul -1.3 20:09:32 10° WNW 20:12:21 24° NNW 20:15:09 10° NE visible
23 Jul -0.8 21:47:39 10° NW 21:49:52 16° N 21:52:05 10° NE visible
23 Jul -1.2 23:24:21 10° NW 23:25:55 21° NNW 23:25:55 21° NNW visible
24 Jul -0.9 20:58:01 10° NW 21:00:16 17° N 21:02:30 10° NE visible
24 Jul -1.5 22:35:04 10° NW 22:37:49 23° NNE 22:37:57 23° NNE visible
25 Jul -1.0 20:08:16 10° NW 20:10:39 18° N 20:13:03 10° NE visible
25 Jul -1.2 21:45:46 10° NW 21:48:14 19° NNE 21:50:01 13° NE visible
25 Jul -0.9 23:22:08 10° NW 23:22:49 15° NW 23:22:49 15° NW visible
